Location: Islip Terrace
(40.7432°N, 73.1926°W)
Time: 20:05:00
(UTC+00:00)

Daily predictions for brighter satellites

Satellite Brightness Start Highest point End
(mag) Time Altitude Azimuth Time Altitude Azimuth Time Altitude Azimuth
BREEZE-M DEB (TANK) 4.3 21:45:38 10° W 21:49:15 52° NNW 22:00:36 10° ENE
CZ-4C R/B 3.3 21:53:15 10° N 21:56:53 77° WNW 22:00:29 10° SSW
Cosmos 1814 Rocket 4.4 21:53:32 10° SSW 21:58:51 70° WNW 22:04:10 10° NNE
Cosmos 405 3.2 21:55:31 10° SSW 21:59:00 73° W 22:02:30 10° N
Nadezhda 1 Rocket 4.1 21:53:04 10° S 21:59:13 60° E 22:05:30 10° NNE
Cosmos 389 Rocket 4.0 21:56:56 10° SE 21:59:15 17° E 22:01:34 10° NE
SMAP 3.2 21:55:20 10° SSE 21:59:48 51° ENE 22:04:20 10° N
Cosmos 1606 3.9 21:59:37 10° SE 22:02:43 23° E 22:05:50 10° NE
Cosmos 2292 4.3 22:07:39 10° S 22:10:34 53° E 22:13:50 10° NNE
Cosmos 1943 Rocket 4.0 22:10:14 10° NNE 22:11:16 10° NE 22:12:17 10° NE
SL-16 R/B 3.5 22:07:24 10° SSE 22:11:29 21° E 22:15:35 10° NE
PAYLOAD B 4.4 22:06:44 10° SSE 22:12:20 80° WSW 22:17:56 10° NNW
Cosmos 2154 Rocket 4.0 22:07:37 10° N 22:13:57 68° E 22:20:15 10° SSE
H-2A R/B 2.4 22:14:00 10° N 22:18:08 67° WNW 22:22:20 10° SSW
Cosmos 1610 Rocket 4.5 22:12:25 10° N 22:18:46 74° E 22:25:00 10° SSE
Lacrosse 5 rocket 3.1 22:17:18 10° SSE 22:18:55 12° ESE 22:20:13 11° E
Cosmos 1862 3.2 22:15:17 10° N 22:19:20 82° E 22:23:20 10° S
Cosmos 2341 Rocket 4.4 22:15:42 10° N 22:21:35 41° ENE 22:27:30 10° SE
ATLAS 5 CENTAUR R/B 4.0 22:16:20 10° NW 22:21:56 42° WSW 22:28:17 10° S
CZ-2C R/B 4.2 22:19:13 10° ESE 22:22:45 19° ENE 22:26:12 10° NNE
Abrixas rocket 2.2 22:20:15 10° NW 22:22:55 43° NNE 22:24:47 17° E
Cosmos 1867 4.2 22:20:15 10° S 22:25:12 38° ESE 22:29:38 13° NE
CZ-4 R/B 3.0 22:25:58 14° NE 22:25:58 14° NE 22:27:42 10° NNE
Cosmos 2333 Rocket 3.8 22:20:37 10° WSW 22:25:39 32° WNW 22:30:41 10° N
USA 281 3.9 22:20:46 10° ESE 22:26:25 32° NE 22:32:05 10° N
NOSS 0 Rocket 4.1 22:22:09 10° SSW 22:28:23 77° WNW 22:34:40 10° NNE
Cosmos 1633 Rocket 4.1 22:25:23 10° NNE 22:28:53 23° ENE 22:32:22 10° SE
Cosmos 1689 Rocket 3.6 22:29:44 18° E 22:29:49 18° E 22:31:55 10° SE
CZ-2D R/B 4.3 22:27:42 10° ESE 22:30:44 23° ENE 22:33:47 10° NNE
COSMOS 2428 4.1 22:25:37 10° SW 22:30:54 37° WNW 22:36:11 10° N
Cosmos 2298 Rocket 4.1 22:28:25 10° NNW 22:33:45 82° WSW 22:39:03 10° SSE
Cosmos 1356 4.0 22:30:38 10° N 22:33:45 32° ENE 22:36:52 10° SE
Cosmos 1818 3.5 22:29:42 10° NNW 22:35:10 67° NE 22:40:35 10° SE
Cosmos 2150 Rocket 4.0 22:30:18 10° NNW 22:35:29 85° WSW 22:40:38 10° SSE
ISS -3.0 22:32:30 10° WSW 22:35:44 45° NNW 22:37:58 18° NE
Cosmos 1939 Rocket 3.1 22:35:38 10° SE 22:39:16 41° ENE 22:42:56 10° N
ERS-2 2.0 22:35:50 10° NNE 22:39:29 72° ESE 22:43:08 10° S
Cosmos 2278 Rocket 2.3 22:36:34 10° NNW 22:42:16 81° WSW 22:47:55 10° SSE
CZ-4B R/B 1.1 22:40:10 10° N 22:43:14 83° W 22:46:19 10° SSW
SAR-Lupe-1 4.4 22:41:34 16° NNE 22:44:08 42° E 22:47:33 10° S
SL-8 Rocket 4.1 22:42:43 10° N 22:48:46 50° ENE 22:54:50 10° SSE
BREEZE-M DEB (TANK) 4.0 22:46:12 10° S 22:48:58 16° SSE 22:49:51 15° SE
Cosmos 2181 Rocket 4.1 22:43:47 10° SSE 22:50:01 56° E 22:56:16 10° NNE
TELKOM 3 3.9 22:47:32 10° WSW 22:50:09 42° NNW 22:50:44 35° N
GENESIS II 4.2 22:46:53 10° NNW 22:50:46 55° NE 22:53:40 16° SE
Meteor 1-25 Rocket 4.5 22:45:50 10° N 22:51:09 43° ENE 22:56:31 10° SSE
Cosmos 1125 Rocket 3.5 22:47:22 10° NNW 22:52:36 86° WSW 22:57:48 10° SSE
IRS-1C Rocket 4.1 22:47:51 10° SSE 22:53:00 56° ENE 22:58:10 10° N
YAOGAN 1 3.5 22:55:22 27° NE 22:55:22 27° NE 22:58:30 10° N
YAOGAN 3 4.4 22:55:18 10° SSE 22:59:39 80° ENE 23:04:02 10° N
USA 215 3.6 22:54:19 15° NE 22:59:49 62° NW 23:06:14 10° WSW
Cosmos 2219 Rocket 4.5 22:56:06 10° W 23:00:09 20° NW 23:04:11 10° N
Okean-O 3.0 22:57:31 10° SE 23:01:39 40° ENE 23:05:49 10° N
Meteor 2-12 Rocket 4.5 22:58:14 10° N 23:04:25 83° W 23:10:31 10° S
SL-24 R/B - RUBIN 2 4.4 23:01:21 10° NW 23:07:33 75° WSW 23:12:59 10° SSE
COSMO-SKYMED 1 2.5 23:03:20 10° NNE 23:07:42 86° W 23:12:02 10° SSW
Cosmos 2237 Rocket 3.1 23:02:31 10° SW 23:07:54 46° WNW 23:13:20 10° NNE
EO 1 Delta rocket 4.3 23:06:08 10° NNE 23:11:27 70° E 23:18:11 10° S
CZ-4 R/B 4.3 23:09:09 10° SSE 23:13:16 77° ENE 23:17:26 10° N
Okean O Rocket 3.8 23:10:46 10° SSW 23:14:28 27° W 23:18:12 10° NW
Cosmos 1933 3.4 23:11:58 10° S 23:15:58 79° W 23:19:06 16° N
SL-24 R/B 3.8 23:13:00 15° N 23:16:20 84° W 23:20:03 10° SSW
USA 81 3.9 23:14:49 10° N 23:20:08 86° E 23:25:25 10° S
Sich 1 4.0 23:15:59 10° NNW 23:20:13 48° W 23:24:23 10° SSW
PSLV R/B 3.8 23:20:05 27° N 23:22:12 83° WNW 23:26:14 10° SSW
CSL-04 Rocket 4.3 23:23:40 34° NE 23:23:40 34° NE 23:27:20 10° N
Cosmos 2369 Rocket 3.8 23:19:52 10° N 23:22:06 19° NNE 23:22:06 19° NNE
H-2A R/B 2.2 23:25:29 47° ENE 23:25:31 47° ENE 23:30:33 10° N
Helios 1A Rocket 2.7 23:25:00 10° SSE 23:29:01 81° ENE 23:33:03 10° N
SL-23 DEB 4.2 23:26:28 10° SW 23:30:10 61° SE 23:30:30 60° ESE
USA 267 3.2 23:27:58 35° ESE 23:30:55 70° NE 23:37:25 10° NW
Cosmos 2218 Rocket 3.9 23:26:48 10° N 23:32:58 88° W 23:39:07 10° S
Cosmos 1151 Rocket 3.4 23:30:46 10° SSW 23:35:00 62° W 23:37:28 24° N
Cosmos 1666 Rocket 4.3 23:31:07 10° NNW 23:35:23 52° W 23:39:41 10° S
Cosmos 773 Rocket 3.8 23:30:41 10° SSW 23:35:55 81° ESE 23:37:15 52° NNE
Cosmos 1782 3.8 23:32:49 10° S 23:35:12 36° S 23:35:12 36° S
Cosmos 1328 Rocket 3.8 23:34:19 10° SSW 23:38:34 65° W 23:40:17 35° N
Meteor 1-14 Rocket 4.2 23:39:02 10° N 23:44:58 68° E 23:46:47 45° SE
Cosmos 2366 rocket 4.1 23:38:55 10° N 23:45:07 74° W 23:51:13 10° S
Cosmos 2297 3.6 23:42:51 10° NNW 23:48:34 88° WSW 23:50:36 42° SSE
BREEZE-M DEB (TANK) 3.4 23:39:27 10° SW 23:48:28 72° SSE 23:48:28 72° SSE
MOS 1 Rocket 3.8 23:51:26 26° N 23:54:34 71° WNW 23:59:58 10° SSW
